Location: Newark
(39.0622°N, 106.5590°E)
Time: 00:58:35
(UTC+00:00)

Courier 1B - Pass Details

Date: 01 February 2020
Orbit: 962 x 1209 km, 28.3° (Epoch: 20 February)

Event Time Altitude Azimuth Distance (km) Brightness Sun altitude
Rises 22:31:03 0° 256° (WSW) 3,883 - -17.6°
Exits shadow 22:35:24 - 232° (SW) 3,043 9.7 -16.7°
Reaches altitude 10° 22:35:53 10° 228° (SW) 2,986 9.7 -16.6°
Maximum altitude 22:38:30 12° 207° (SSW) 2,857 9.8 -16.1°
Drops below altitude 10° 22:41:10 10° 186° (S) 3,044 10.1 -15.6°
Sets 22:46:15 0° 158° (SSE) 4,051 11.2 -14.6°
